Dalhart, TX

12:49 PM CDT on July 28, 2016 (GMT -0500)
Dalhart Municipal

Weather History for KDHT - April, 2013

Change the Weather History Date:

Wednesday, April 3, 2013

  Actual Average Record
Temperature  
Mean Temperature 35 °F 50 °F  
Max Temperature 40 °F 66 °F 89 °F (2011)
Min Temperature 30 °F 34 °F 19 °F (1975)
Degree Days  
Heating Degree Days 30 15  
Month to date heating degree days 85 46  
Since 1 July heating degree days 3943 4300  
Cooling Degree Days 0 0  
Month to date cooling degree days 0 0  
Year to date cooling degree days 0 0  
Moisture  
Dew Point 30 °F    
Average Humidity 81    
Maximum Humidity 92    
Minimum Humidity 70    
Precipitation  
Precipitation 0.00 in 0.04 in 1.61 in (1993)
Month to date precipitation T 0.11  
Year to date precipitation 0.86 2.20  
Snow  
Snow 0.00 in 0.00 in 5.00 in (1993)
Month to date snowfall T 0.2  
Since 1 July snowfall 21.6 17.9  
Snow Depth 0.00 in    
Sea Level Pressure  
Sea Level Pressure 30.19 in    
Wind  
Wind Speed 9 mph (NE)    
Max Wind Speed 18 mph    
Max Gust Speed 21 mph    
Visibility 7 miles    
Events      
T = Trace of Precipitation, MM = Missing Value Source: NWS Daily Summary

Daily Weather History Graph

Daily Weather History Graph

Search for Another Location

Airport or City:

Trip Planner

Search our weather history database for the weather conditions in past years. The results will help you decide how hot, cold, wet, or windy it might be!

Date:

Astronomy

Apr. 03, 2013 Rise Set
Actual Time 7:33 AM CDT 8:14 PM CDT
Civil Twilight 7:07 AM CDT 8:39 PM CDT
Nautical Twilight 6:36 AM CDT 9:10 PM CDT
Astronomical Twilight 6:05 AM CDT 9:41 PM CDT
Moon 3:03 AM CDT (4/3) 1:40 PM CDT (4/3)
Length of Visible Light 13h 32m
Length of Day
12h 40m
Last Quarter, 44% of the Moon is Illuminated
Apr 3
Last Quarter
Apr 10
New
Apr 18
First Quarter
Apr 25
Full
May 2
Last Quarter

Hourly Weather History & Observations

Time (CDT) Temp. Windchill Dew Point Humidity Pressure Visibility Wind Dir Wind Speed Gust Speed Precip Events Conditions
12:53 AM 33.1 °F 22.6 °F 30.9 °F 92% 30.18 in 8.0 mi ENE 16.1 mph - N/A   Overcast
1:36 AM 32.0 °F 22.5 °F 30.2 °F 93% 30.15 in 1.5 mi NE 12.7 mph - N/A   Overcast
1:51 AM 32.0 °F 22.1 °F 30.2 °F 93% 30.14 in 4.0 mi NNE 13.8 mph - N/A   Overcast
1:53 AM 32.0 °F 21.6 °F 30.0 °F 92% 30.18 in 6.0 mi NNE 15.0 mph - N/A   Overcast
2:47 AM 32.0 °F 24.8 °F 30.2 °F 93% 30.17 in 1.8 mi NNE 8.1 mph - N/A   Overcast
2:53 AM 32.0 °F 24.2 °F 30.0 °F 92% 30.19 in 1.5 mi NE 9.2 mph - N/A   Overcast
2:57 AM 32.0 °F 23.6 °F 30.2 °F 93% 30.15 in 3.0 mi NNE 10.4 mph - N/A   Overcast
3:42 AM 32.0 °F 23.0 °F 30.2 °F 93% 30.15 in 1.8 mi NE 11.5 mph - N/A   Overcast
3:53 AM 32.0 °F 24.8 °F 30.0 °F 92% 30.19 in 1.8 mi NE 8.1 mph - N/A   Overcast
4:53 AM 32.0 °F 24.2 °F 30.0 °F 92% 30.18 in 1.5 mi NNE 9.2 mph - N/A   Overcast
5:03 AM 32.0 °F 23.6 °F 30.2 °F 93% 30.15 in 2.5 mi NE 10.4 mph - N/A   Overcast
5:23 AM 32.0 °F 23.0 °F 30.2 °F 93% 30.15 in 4.0 mi NE 11.5 mph - N/A   Overcast
5:51 AM 32.0 °F 24.2 °F 30.2 °F 93% 30.16 in 4.0 mi NE 9.2 mph - N/A   Overcast
5:53 AM 32.0 °F 24.2 °F 30.0 °F 92% 30.19 in 5.0 mi NE 9.2 mph - N/A   Overcast
6:53 AM 32.0 °F 23.6 °F 30.0 °F 92% 30.20 in 3.0 mi NNE 10.4 mph - N/A   Overcast
7:53 AM 32.0 °F 23.6 °F 30.0 °F 92% 30.21 in 4.0 mi NNE 10.4 mph - N/A   Overcast
8:17 AM 32.0 °F 23.0 °F 30.2 °F 93% 30.19 in 2.5 mi NNE 11.5 mph - N/A   Overcast
8:27 AM 32.0 °F 24.8 °F 30.2 °F 93% 30.19 in 6.0 mi NNE 8.1 mph - N/A   Overcast
8:53 AM 32.0 °F 23.0 °F 28.9 °F 88% 30.22 in 10.0 mi NNE 11.5 mph - N/A   Overcast
9:53 AM 33.1 °F 23.9 °F 30.0 °F 89% 30.22 in 10.0 mi NE 12.7 mph - N/A   Overcast
10:53 AM 33.1 °F 23.9 °F 30.0 °F 89% 30.23 in 9.0 mi NE 12.7 mph - N/A   Overcast
11:53 AM 35.1 °F 26.4 °F 30.0 °F 82% 30.24 in 10.0 mi ENE 12.7 mph - N/A   Overcast
12:53 PM 36.0 °F 27.5 °F 30.9 °F 82% 30.23 in 7.0 mi NE 12.7 mph - N/A   Overcast
1:48 PM 35.6 °F 27.1 °F 30.2 °F 81% 30.20 in 10.0 mi NE 12.7 mph - N/A   Overcast
1:53 PM 36.0 °F 28.0 °F 30.0 °F 79% 30.22 in 10.0 mi NNE 11.5 mph - N/A   Overcast
2:53 PM 37.0 °F 30.4 °F 30.9 °F 79% 30.21 in 10.0 mi NE 9.2 mph - N/A   Overcast
3:53 PM 37.9 °F 30.9 °F 30.0 °F 73% 30.20 in 10.0 mi NE 10.4 mph - N/A   Overcast
4:53 PM 39.0 °F 32.3 °F 30.9 °F 73% 30.17 in 10.0 mi NE 10.4 mph - N/A   Overcast
5:53 PM 39.0 °F 32.3 °F 30.9 °F 73% 30.17 in 10.0 mi NE 10.4 mph - N/A   Overcast
6:01 PM 39.2 °F 33.0 °F 30.2 °F 70% 30.15 in 10.0 mi NNE 9.2 mph - N/A   Overcast
6:53 PM 39.0 °F 33.4 °F 30.9 °F 73% 30.18 in 10.0 mi NNE 8.1 mph - N/A   Overcast
7:53 PM 39.0 °F 34.0 °F 30.9 °F 73% 30.18 in 10.0 mi NNE 6.9 mph - N/A   Overcast
8:53 PM 37.9 °F 33.5 °F 30.9 °F 76% 30.20 in 10.0 mi NE 5.8 mph - N/A   Overcast
9:53 PM 37.9 °F 35.5 °F 30.9 °F 76% 30.21 in 10.0 mi North 3.5 mph - N/A   Overcast
10:41 PM 37.4 °F - 30.2 °F 75% 30.20 in 10.0 mi Calm Calm - N/A   Overcast
10:53 PM 37.0 °F 34.5 °F 30.9 °F 79% 30.22 in 10.0 mi East 3.5 mph - N/A   Overcast
11:53 PM 34.0 °F - 30.0 °F 85% 30.21 in 9.0 mi Calm Calm - N/A   Scattered Clouds